Terminal Aerodrome Forecast
Issued by NWS Spokane, WA

Home | Current Version | Previous Version | Text Only | Print | Product List | Glossary On
Versions: 1 2 3 4 5 6 7 8 9 10 11 12 13 14 15 16 17 18 19 20 21 22 23 24 25 26 27 28 29 30 31 32 33 34 35 36
000
FTUS46 KOTX 241139
TAFGEG
TAF
KGEG 241139Z 2412/2512 10006KT P6SM FEW200
     FM242200 20008KT P6SM SCT080 BKN200 PROB30 2502/2506 -TSRA
      BKN080CB
     FM250600 19006KT P6SM VCSH SCT080 BKN200=

USA.gov is the U.S. government's official web portal to all federal, state and local government web resources and services.